RH
52 51 48 45 43 41 42 42 42 42 43 44 45 45 46 48 49 49 48 48 49 51 52 53 54 55 55 56 58 61 64 69 74 77 79 78 79 79 79 78 78 78 78 78 77 77 77 80 81 82 83 81 78 75 72 70 70 70 72 74 75 77 78 78 78 79 80 79 79 79 80 80 81 83 85 89 90 90 93 92 93 93 93 92 92 91
55 55 53 50 48 46 46 46 45 45 46 46 47 48 49 49 50 50 50 51 52 53 55 56 57 58 58 58 58 60 62 65 71 76 78 79 78 78 77 77 77 78 78 77 77 78 80 82 82 81 77 73 71 70 70 71 72 74 76 77 77 78 78 79 80 80 79 79 78 78 78 79 81 82 83 85 86 86 87 88 88 87 86 85 84 83
57 57 56 55 53 52 51 50 50 49 49 49 50 51 52 53 53 54 54 55 56 57 58 59 60 60 60 60 60 61 63 65 70 75 78 78 78 77 77 77 78 78 78 78 78 80 82 81 78 73 70 68 69 70 71 73 74 75 76 76 76 77 77 78 77 76 74 74 74 75 76 78 80 81 80 81 81 81 82 83 83 83 83 83 82 82
59 60 59 58 57 55 54 54 53 53 53 53 53 53 54 55 56 57 59 59 60 61 61 62 62 62 62 62 61 62 63 65 70 75 77 77 76 76 77 77 78 78 78 79 80 80 78 73 70 68 68 69 70 71 72 73 74 74 75 74 74 73 73 73 71 70 69 69 70 72 74 76 78 79 80 81 82 83 83 83 84 84 85 85 86 86
61 62 61 60 59 58 57 56 55 55 55 55 56 56 57 58 59 60 61 62 63 64 64 65 65 65 64 63 63 63 64 66 70 74 75 76 76 76 77 77 78 78 79 79 77 75 72 70 70 70 71 70 71 71 71 72 72 72 72 72 72 72 72 71 70 68 67 68 69 70 73 75 78 80 82 84 84 85 85 85 85 86 87 87 88 88
65 64 63 62 61 60 59 58 57 57 57 58 58 59 59 60 61 63 64 65 66 67 68 68 67 67 66 66 65 65 66 69 71 73 74 75 76 76 77 77 78 78 78 76 74 71 69 69 70 72 73 73 73 72 72 71 71 71 71 71 72 72 72 72 71 71 70 69 70 72 75 77 79 81 83 84 84 85 85 86 86 86 87 87 87 87
67 67 66 65 64 62 61 60 60 60 60 61 61 62 62 63 64 65 66 67 68 69 70 70 69 69 68 68 67 67 68 69 70 72 73 74 76 76 76 77 77 76 74 72 71 70 70 71 72 73 74 74 74 74 73 73 72 72 72 72 72 73 72 72 71 71 71 71 72 74 77 78 79 81 82 83 84 84 85 84 84 84 84 83 82 81
71 71 70 69 67 66 64 63 63 62 62 62 63 64 65 65 65 66 67 67 69 70 71 72 71 71 70 69 68 68 68 67 67 68 69 70 72 74 75 75 74 72 70 69 70 70 71 72 73 73 74 74 74 73 73 73 72 73 73 73 73 74 74 72 71 70 71 72 73 75 76 77 79 80 81 82 82 82 82 83 83 83 83 81 81 81
75 75 74 73 71 70 68 67 66 64 63 63 64 65 65 66 66 66 67 67 69 70 71 73 73 73 71 70 69 68 68 67 67 67 67 68 70 71 72 71 70 70 69 69 70 70 71 71 72 73 73 73 72 72 72 72 72 72 73 73 73 74 74 72 70 70 70 71 72 73 75 76 78 80 82 83 84 84 83 84 86 87 87 87 89 91
78 78 77 76 75 73 72 70 68 66 65 64 64 65 66 66 66 66 67 67 68 69 70 72 73 73 72 70 69 69 68 68 68 69 71 72 72 72 71 70 70 69 69 69 69 69 70 70 71 71 71 71 70 70 71 71 72 72 72 72 72 73 73 72 70 69 69 70 71 73 75 78 81 83 85 87 88 88 86 87 89 90 91 92 93 93
79 78 79 79 78 77 75 73 71 69 67 66 66 67 68 68 68 68 68 67 67 67 69 70 71 71 72 71 70 69 68 68 68 69 71 72 72 71 70 69 68 68 68 68 68 67 68 69 69 69 70 70 70 70 70 70 70 71 71 71 71 71 72 72 70 69 69 70 73 76 78 81 84 85 86 86 87 88 87 87 87 87 86 86 85 83
79 79 79 79 79 78 76 74 72 71 69 69 69 69 70 70 69 69 70 68 67 67 68 68 69 70 70 70 70 69 69 69 69 69 70 69 68 67 65 65 64 64 64 63 63 64 65 66 67 68 68 69 68 68 69 69 70 70 70 71 71 71 70 70 70 70 70 73 75 78 80 82 84 85 84 84 84 85 84 84 84 83 81 80 80 81
79 78 78 79 79 78 76 75 73 71 70 71 71 70 69 69 69 69 70 69 68 68 68 69 69 69 69 69 70 70 70 70 70 70 69 68 66 65 63 62 61 61 60 60 61 62 63 65 67 67 67 67 67 67 66 67 67 68 68 69 70 70 70 71 71 71 72 74 77 79 81 82 82 83 83 84 84 84 83 84 85 85 85 85 86 87
80 79 79 79 78 77 75 73 72 70 70 70 70 70 69 68 68 69 70 70 69 69 70 71 71 71 71 71 71 71 71 71 70 70 69 67 65 63 62 61 60 60 60 61 62 64 65 66 67 66 65 64 64 63 63 63 64 65 67 69 70 70 71 71 72 72 74 76 77 79 81 82 83 83 84 86 86 86 85 87 88 89 89 90 89 88
80 80 78 77 76 75 74 72 70 69 68 68 68 69 69 69 70 70 72 72 71 71 72 74 75 75 74 74 73 72 71 71 70 70 68 65 63 61 60 60 60 60 61 63 65 67 67 67 67 65 64 62 61 61 61 63 65 67 68 70 70 71 72 72 73 73 74 75 77 78 81 81 82 83 84 85 85 85 85 86 87 88 87 88 85 82
78 78 77 76 75 73 71 70 69 68 67 66 67 68 69 70 71 71 72 72 73 73 74 76 76 76 74 73 72 71 70 70 69 68 65 62 60 58 58 59 61 62 64 66 68 69 69 68 66 64 62 61 60 61 62 64 66 67 69 70 71 72 73 73 72 72 74 76 77 78 80 82 82 82 83 84 84 84 83 83 83 83 82 82 82 84
77 77 77 75 73 73 70 69 68 68 67 67 66 67 68 69 70 71 72 73 73 74 74 75 76 75 73 69 67 67 66 66 65 63 61 59 57 57 57 60 62 65 68 69 70 70 69 67 65 63 61 60 60 61 63 65 67 69 70 72 72 72 72 72 72 73 74 76 78 79 81 82 82 81 82 82 83 83 84 84 85 86 87 89 91 93
78 77 78 76 74 72 71 70 69 68 68 68 68 67 67 68 69 70 71 73 74 74 74 74 74 73 71 68 65 64 63 62 61 60 59 58 57 57 58 62 66 69 71 71 71 70 68 66 63 61 59 59 61 63 65 67 68 69 70 71 71 71 72 73 73 73 74 76 78 79 80 80 80 80 81 82 83 85 87 89 91 93 94 94 93 90
78 78 78 77 75 73 71 70 69 69 69 69 69 68 67 67 68 70 71 73 74 75 74 74 73 72 71 69 67 65 65 64 63 62 62 61 60 60 62 66 69 72 73 72 70 68 66 63 61 59 59 60 62 64 66 67 68 69 70 70 71 72 73 73 73 74 74 75 77 78 79 78 78 80 82 82 84 85 88 88 88 88 88 87 85 83
77 78 78 78 77 75 73 72 71 70 70 70 70 69 69 68 69 70 72 73 74 75 75 75 74 74 72 71 70 69 68 68 67 66 64 64 63 63 65 69 71 73 73 71 69 66 63 61 59 58 58 60 62 64 65 67 68 69 71 71 73 73 74 74 74 74 73 74 75 76 76 76 77 79 80 82 83 84 85 84 84 83 83 83 83 83
77 76 77 78 77 76 74 73 73 72 71 71 72 71 70 70 71 72 74 74 75 75 76 76 76 75 73 72 71 70 70 70 69 67 66 64 64 65 67 70 72 73 72 69 67 64 61 59 58 58 58 59 62 64 66 68 69 70 71 72 73 73 74 74 74 74 73 74 74 74 74 75 77 78 79 81 83 84 85 84 83 83 83 84 84 84
77 75 76 78 78 77 75 74 74 74 74 74 75 74 72 71 71 72 73 75 76 76 76 76 75 74 73 73 73 73 73 72 70 69 67 67 67 68 69 71 72 71 69 66 63 61 59 58 58 58 59 61 63 65 67 69 70 71 72 73 73 74 75 75 74 74 73 73 73 73 75 76 78 79 80 82 84 84 84 85 85 85 85 85 85 85
78 75 75 77 78 79 77 76 75 76 77 77 76 74 71 71 71 72 72 74 75 76 75 75 76 76 76 77 77 77 77 76 74 72 71 72 72 70 70 70 70 69 66 64 62 60 58 58 59 59 60 62 64 66 68 69 71 72 73 74 74 74 74 73 73 73 73 74 74 74 75 76 77 78 79 81 83 84 85 85 85 85 85 86 87 88
83 78 76 77 78 79 79 78 78 78 78 78 77 75 73 71 71 72 74 75 77 78 79 81 83 84 84 84 84 83 81 79 77 75 75 76 75 73 71 71 69 67 65 62 61 60 59 59 60 61 61 62 64 66 68 70 72 73 74 74 73 73 72 72 72 72 73 73 74 74 74 75 76 77 78 79 80 82 83 84 84 84 85 86 87 88
89 84 80 79 79 79 80 79 79 79 79 78 77 76 74 73 74 76 79 82 84 87 90 92 92 90 87 85 84 82 80 78 76 76 78 78 77 75 73 70 68 65 63 62 60 60 60 61 61 61 62 62 64 66 69 71 72 73 73 72 72 71 71 72 72 72 73 73 73 74 75 75 76 77 78 79 80 82 84 84 85 85 86 86 86 87
93 90 85 82 81 81 81 80 80 80 80 79 78 77 75 76 79 84 89 92 94 95 95 94 91 87 83 80 79 78 75 73 72 73 78 78 78 76 73 69 66 64 62 61 61 61 61 61 61 61 62 63 66 68 70 71 72 72 72 71 71 71 71 72 72 73 73 73 73 74 75 75 76 77 78 79 80 81 83 84 85 85 86 85 86 86
96 94 90 86 84 84 84 83 82 82 82 82 81 80 79 81 87 92 95 95 96 95 95 91 87 83 80 78 76 74 71 69 69 71 74 78 78 77 72 68 65 63 62 62 62 62 62 62 62 62 64 66 67 68 69 69 70 70 70 70 70 71 71 72 72 73 73 73 73 73 74 74 75 76 77 78 79 80 81 83 84 84 85 86 87 89
97 96 94 91 88 87 86 86 85 85 85 85 85 86 87 90 93 94 92 92 93 94 93 89 85 82 80 76 74 71 70 69 69 70 73 78 79 77 71 68 65 63 62 62 62 62 62 63 63 64 65 66 67 67 66 66 67 68 68 69 70 71 71 72 72 72 72 72 72 72 73 73 74 75 75 77 78 79 81 82 84 85 86 88 92 93
97 97 97 95 93 91 91 90 89 89 89 88 88 89 92 94 94 94 92 91 92 93 92 88 85 82 80 77 75 74 73 72 72 73 76 79 79 76 70 67 64 62 61 62 62 62 62 62 63 63 64 64 64 64 63 64 65 66 67 68 70 70 71 71 71 71 71 71 71 72 72 73 73 74 74 76 77 79 81 82 84 86 88 91 93 93
96 97 97 97 97 96 96 95 94 94 94 94 94 94 96 96 96 95 95 94 94 94 93 90 88 86 84 83 82 80 77 76 76 76 78 80 78 74 69 65 62 61 60 62 63 64 63 61 61 61 61 62 62 63 63 65 66 66 67 68 69 69 70 70 70 70 70 70 71 71 72 72 73 73 74 75 77 78 80 82 84 87 89 92 94 94
92 93 95 96 96 97 97 96 96 97 97 97 97 98 98 98 97 97 97 97 96 96 95 94 91 90 88 88 85 81 77 73 72 72 73 75 74 70 66 62 61 60 59 62 65 68 65 62 59 58 60 61 63 65 66 67 68 68 68 68 68 68 68 68 68 69 69 70 70 71 72 73 73 73 74 75 76 78 79 81 83 86 88 91 93 94
87 88 90 91 92 93 94 95 95 96 96 96 97 97 97 97 97 96 96 96 96 97 97 96 94 92 90 90 86 81 78 72 69 67 67 67 67 65 63 61 61 61 61 62 66 69 69 66 63 61 63 64 66 67 68 68 69 69 68 68 68 67 67 67 67 68 68 69 70 71 72 73 74 74 74 74 75 76 78 80 82 85 87 90 93 94
86 86 86 87 89 90 90 91 92 92 93 94 94 94 94 93 92 91 90 90 91 94 96 95 94 93 91 90 87 84 80 76 72 69 67 65 64 63 62 62 62 62 63 64 66 69 71 70 69 67 67 66 66 67 68 68 69 69 68 67 67 66 66 66 67 68 68 69 70 71 72 73 73 73 73 73 74 75 76 78 81 83 87 90 93 95
87 87 88 89 90 91 90 89 89 89 90 92 92 92 91 89 87 85 83 83 85 88 93 93 92 91 90 89 87 84 81 78 75 71 69 68 66 65 64 64 64 64 65 66 66 68 70 71 70 70 68 67 66 66 67 68 68 68 67 66 66 66 66 67 68 69 69 70 70 70 71 71 71 72 72 72 73 74 75 78 80 82 85 88 91 92
91 90 91 92 93 93 93 91 91 91 91 92 92 91 88 85 82 80 80 81 82 85 89 91 91 90 89 88 86 83 80 77 73 70 68 68 68 68 68 67 66 66 67 67 68 69 71 71 71 70 70 69 68 67 66 67 67 66 65 65 66 67 68 68 69 69 70 70 70 70 71 71 70 71 71 71 72 73 74 76 78 80 82 84 86 88
93 92 92 93 94 94 94 94 93 93 93 93 92 89 86 83 81 80 80 81 83 85 86 88 89 90 90 88 86 83 79 75 72 69 68 68 69 70 71 69 68 67 68 70 71 72 74 74 73 72 71 71 69 67 65 65 65 65 66 67 67 68 69 69 69 70 70 70 70 70 70 70 70 71 71 71 71 72 73 75 76 78 79 81 83 84
92 91 90 92 93 93 93 93 94 94 94 93 91 89 86 84 83 83 84 85 86 87 87 87 88 88 88 88 87 85 81 78 75 72 71 71 71 72 73 71 70 70 71 73 75 77 78 77 76 74 73 71 69 67 65 65 66 67 68 68 69 69 69 70 70 70 70 70 70 70 70 70 70 70 70 70 70 71 72 73 75 76 78 79 81 82
90 89 88 89 90 90 91 90 91 92 93 92 90 87 86 84 85 86 88 89 90 90 90 89 89 88 88 88 88 87 85 83 80 78 77 76 75 75 75 74 74 73 74 76 78 80 82 82 79 77 74 70 68 67 67 68 69 69 69 69 69 70 70 70 70 70 70 70 70 70 70 71 70 70 69 69 69 70 70 72 73 74 76 78 79 81
87 86 85 85 86 87 88 89 89 90 91 90 88 85 84 84 85 87 89 90 91 91 91 91 91 90 90 90 90 89 89 87 86 84 82 80 79 79 79 79 78 77 77 78 80 82 85 85 83 80 78 74 71 70 69 70 70 71 71 70 70 70 70 69 69 70 70 71 71 71 71 70 69 69 68 68 69 69 70 71 72 74 76 78 80 81
84 83 83 82 83 84 86 87 88 89 89 87 85 83 83 84 86 88 89 90 92 93 93 93 93 94 94 93 93 92 91 90 88 87 85 84 83 83 84 85 84 83 82 82 84 85 86 86 84 82 78 77 76 74 72 72 72 72 72 72 71 70 69 69 70 71 71 71 71 71 70 69 68 68 68 69 69 70 71 72 73 75 78 80 82 83
82 81 80 81 82 83 85 86 87 87 86 84 83 83 83 84 86 88 90 92 94 95 95 95 95 95 95 95 94 93 92 91 89 87 86 85 84 85 87 88 89 89 87 86 86 87 86 86 85 82 80 80 78 77 75 74 73 73 73 74 73 71 70 71 72 72 72 71 70 70 69 69 69 69 69 69 70 70 71 73 75 77 79 82 84 85
79 79 79 80 81 82 84 85 85 84 83 82 82 83 84 85 87 90 92 94 95 95 95 95 95 95 95 94 93 92 92 91 89 87 85 83 82 83 86 88 90 91 91 89 88 86 85 85 84 83 83 82 81 80 77 75 74 74 74 74 74 73 73 71 70 70 70 70 70 70 70 70 70 70 70 69 70 70 71 74 76 78 79 80 81 82
79 78 78 79 80 82 83 84 84 83 83 83 83 84 86 87 89 92 94 95 95 94 94 94 94 93 92 90 89 88 88 87 86 84 82 80 78 79 81 84 87 90 93 92 89 86 84 83 83 83 83 83 83 83 81 78 76 75 74 74 74 74 73 70 70 70 72 72 72 71 71 70 70 70 69 69 68 68 69 70 72 73 73 74 75 77
80 79 78 79 81 82 84 85 85 84 85 86 87 87 89 90 93 95 95 95 94 93 93 92 91 90 89 87 86 84 83 82 81 80 78 77 77 77 78 80 83 86 90 92 91 88 84 82 81 81 81 82 83 83 82 80 78 75 74 73 74 75 75 74 74 74 75 74 73 72 71 70 70 70 69 68 66 65 65 65 66 67 68 70 72 74
84 83 82 82 83 85 87 87 87 87 88 90 91 92 93 94 95 95 95 94 93 91 90 88 88 88 87 85 82 80 79 78 78 78 77 77 77 77 78 80 82 84 87 90 91 90 87 85 82 81 80 81 82 82 81 80 78 76 74 74 74 75 76 76 76 77 77 75 73 71 70 70 70 70 68 66 65 64 64 65 65 66 67 70 72 75
91 90 88 87 88 88 89 90 91 92 94 95 95 95 95 95 95 95 94 93 92 90 89 89 89 88 86 83 80 78 77 77 76 77 77 77 77 78 78 80 81 84 86 88 89 89 89 87 85 84 84 83 83 82 81 79 79 78 76 75 75 75 76 76 76 76 76 75 74 72 71 71 70 69 67 66 66 66 67 67 67 68 69 70 73 75
97 96 95 95 95 94 94 95 95 96 96 96 95 95 94 93 92 92 92 92 91 91 91 91 91 89 86 82 79 78 77 76 75 75 75 76 76 76 76 77 78 79 82 85 86 87 89 89 89 89 89 87 85 82 79 78 78 78 78 77 77 77 78 77 77 76 75 74 73 72 71 71 70 68 67 68 69 69 69 69 69 69 70 72 74 76
98 97 97 97 97 97 97 97 97 96 96 95 94 92 90 89 89 90 91 91 92 92 92 91 90 87 85 82 80 78 77 76 76 76 75 76 76 76 76 76 77 77 79 81 84 86 88 89 91 92 93 91 88 84 80 79 79 79 78 79 79 79 79 78 77 76 75 75 73 72 71 70 70 70 70 72 72 72 71 70 69 69 71 73 74 76
97 97 97 97 97 97 97 96 96 95 94 92 90 88 87 87 88 89 91 92 92 92 91 89 87 85 83 80 79 77 76 75 75 75 76 76 76 77 77 77 78 78 80 82 83 85 87 88 89 90 92 92 90 87 84 82 81 81 81 81 81 81 80 79 78 77 76 74 72 70 69 70 71 73 75 76 75 74 71 70 69 69 70 72 74 75
98 97 97 97 97 96 96 95 95 94 92 90 88 87 86 87 88 90 91 91 91 91 90 88 86 84 82 80 78 76 75 75 75 75 75 75 76 77 78 78 79 80 81 82 82 83 83 84 84 84 85 88 90 90 89 87 85 84 84 83 82 81 80 79 78 76 73 71 69 69 70 72 75 77 78 78 76 73 71 69 68 68 69 71 73 74
98 98 97 97 96 96 95 94 93 93 91 90 88 87 87 88 89 89 90 90 90 89 88 86 84 82 81 79 77 76 75 75 75 75 74 74 75 76 77 78 79 80 81 81 79 78 77 77 75 74 73 76 80 84 88 87 87 86 85 83 81 80 79 77 75 72 70 69 70 71 74 77 78 79 79 78 75 72 70 68 68 68 69 71 73 75
Wind_Speed
21 20 19 19 20 22 23 25 25 26 27 27 28 28 29 28 29 29 29 29 29 29 29 29 29 30 30 30 29 28 28 27 27 26 26 26 26 26 26 26 26 26 26 26 26 26 26 27 27 28 28 29 30 30 31 31 32 32 33 33 33 34 34 35 35 36 37 37 38 38 39 40 40 41 41 41 42 42 42 42 43 43 44 44 44 44
22 21 21 21 22 23 24 26 26 27 28 28 28 28 28 28 28 29 29 28 28 28 28 29 29 30 30 31 30 29 28 27 27 26 26 26 26 26 26 26 26 26 26 26 26 26 27 27 28 28 28 29 30 30 31 31 32 32 32 33 33 34 34 35 36 36 37 37 38 38 39 39 40 40 41 41 42 42 43 43 44 44 45 45 46 46
21 21 22 22 23 24 25 26 27 27 28 28 28 28 27 27 27 27 27 27 27 27 27 28 29 30 30 31 30 29 28 27 26 26 26 26 26 26 26 26 26 26 26 26 26 27 27 27 27 28 29 29 30 30 30 31 31 31 32 33 33 34 34 35 36 36 37 37 38 38 39 39 40 40 41 42 42 42 43 43 44 44 45 46 46 46
22 22 22 23 24 25 26 27 27 27 27 27 27 27 26 26 26 27 26 26 26 27 28 28 29 29 30 31 30 29 28 27 26 26 26 26 26 26 26 26 26 26 26 26 26 26 27 27 27 28 29 29 29 30 30 30 31 31 32 33 33 34 34 35 36 36 37 37 38 39 39 39 40 41 41 41 42 42 42 43 43 43 44 45 45 46
23 23 23 22 22 24 26 26 26 26 26 26 26 26 26 26 26 26 26 26 27 27 28 28 29 29 30 30 30 29 28 26 25 25 25 26 26 26 26 26 26 26 26 26 26 26 26 27 28 28 28 29 29 29 29 30 31 31 32 33 33 34 35 35 36 36 37 37 38 38 39 39 39 40 40 40 41 41 41 42 42 43 43 44 44 45
23 23 23 22 22 23 23 24 24 24 24 24 24 25 25 26 26 26 26 26 27 27 27 28 28 29 29 29 29 28 26 25 25 25 25 26 26 26 26 26 26 26 26 26 26 26 27 27 28 28 28 28 28 29 29 30 31 32 32 33 34 34 35 35 36 36 37 37 37 38 38 38 39 39 39 40 40 40 41 41 41 42 42 43 43 44
22 23 23 23 23 23 22 22 22 22 22 22 22 23 23 24 25 25 26 26 26 26 26 27 27 27 28 28 28 27 26 25 25 25 25 25 26 26 25 25 25 25 25 25 26 26 27 27 27 27 27 27 28 28 29 30 31 32 33 33 34 34 35 35 35 36 36 36 37 37 38 38 38 39 39 39 39 40 40 40 41 41 42 42 43 44
21 22 22 22 22 22 22 22 22 22 22 21 21 21 21 22 23 24 25 26 26 26 26 26 26 27 27 27 27 27 26 26 26 26 25 25 25 25 25 25 24 25 25 25 26 26 26 26 26 26 26 27 28 29 29 30 31 32 33 33 34 34 34 35 35 35 36 36 36 37 37 38 38 38 39 39 39 39 40 40 41 41 42 42 43 44
21 21 22 22 21 20 20 21 22 22 22 22 21 21 20 20 21 22 22 23 24 25 25 25 25 26 26 27 27 26 26 26 26 26 25 25 25 24 24 23 23 24 24 25 25 26 26 26 26 26 26 27 28 29 30 31 31 32 32 33 33 33 34 34 35 35 35 36 36 36 37 37 38 38 39 39 39 40 40 41 41 41 42 42 43 43
23 23 22 23 22 21 20 20 21 22 22 22 22 22 21 20 20 20 20 21 23 23 23 23 23 24 25 25 26 26 25 25 25 24 24 24 24 23 23 23 23 24 24 25 25 25 25 25 25 26 26 27 28 29 30 31 31 32 32 32 33 33 33 34 34 35 35 36 36 36 37 38 38 39 39 40 40 41 41 41 41 42 42 43 43 43
23 24 22 22 22 22 22 21 21 21 20 21 22 22 22 22 21 20 19 20 21 21 22 22 23 23 23 23 24 24 24 24 24 24 23 23 23 24 24 24 25 25 25 25 25 25 25 25 25 25 26 27 28 29 30 30 30 31 31 32 32 33 33 34 34 34 35 35 36 37 37 38 38 39 40 40 41 41 41 41 42 42 43 43 44 44
21 22 22 21 20 20 21 22 21 20 19 19 19 20 22 23 23 21 20 20 20 21 21 21 22 23 23 23 23 23 23 23 23 24 24 25 25 26 26 26 26 26 25 25 25 24 24 24 25 25 26 27 28 28 29 29 29 30 31 32 32 33 33 33 34 34 35 36 36 37 38 38 39 39 40 40 40 41 42 42 42 42 43 44 44 44
21 21 20 20 19 19 19 19 18 18 19 18 18 18 20 22 22 21 21 21 22 21 20 20 21 22 23 24 23 23 22 22 23 23 24 25 26 26 26 26 26 26 25 25 25 25 24 24 24 25 26 27 27 28 28 29 30 30 31 32 32 32 33 33 34 35 35 36 37 38 38 39 39 40 40 40 41 41 42 42 43 43 44 44 44 44
20 19 19 18 19 19 19 18 18 18 19 20 20 21 21 20 19 20 20 21 22 22 20 20 20 21 22 23 24 23 23 23 23 24 24 25 26 26 25 25 24 24 24 24 24 25 25 24 24 26 27 27 28 28 29 29 30 30 31 31 32 32 33 34 34 35 36 37 37 38 39 39 40 40 40 41 41 41 42 42 43 43 43 43 44 44
18 17 16 16 17 19 19 20 19 20 21 21 21 21 21 19 19 19 19 19 20 20 19 19 20 22 22 23 23 23 23 23 23 24 24 25 25 24 23 23 23 23 23 23 24 25 25 24 25 27 28 29 29 29 29 29 29 30 31 31 32 33 33 34 35 35 36 37 38 38 39 40 40 40 41 41 41 41 41 42 42 42 43 43 43 44
19 18 16 16 17 19 21 21 21 21 21 22 21 20 19 19 19 19 19 19 19 18 17 16 17 18 20 22 22 22 22 23 24 23 23 24 23 22 21 20 21 22 23 23 24 25 25 26 26 28 29 29 29 28 28 28 29 30 31 32 32 33 34 34 35 35 36 37 38 39 39 40 40 40 40 41 41 41 41 41 42 42 42 43 43 44
20 19 18 18 18 19 21 22 22 22 21 21 21 21 20 20 20 20 19 19 17 16 15 14 9 7 10 16 19 19 19 20 21 21 21 21 22 21 20 20 20 22 23 24 25 25 26 26 27 28 28 28 28 27 27 28 29 30 31 32 33 33 34 34 35 36 36 37 38 39 39 40 40 40 40 40 40 40 41 41 42 42 42 43 43 43
21 21 20 19 19 20 21 21 21 22 21 21 21 21 21 21 21 20 20 19 17 16 15 15 11 7 5 10 14 15 15 16 17 18 19 20 21 21 20 20 21 22 24 25 26 26 26 27 28 28 28 28 27 26 27 28 29 30 31 32 32 33 34 34 35 36 37 37 38 39 39 40 40 40 40 40 40 40 41 41 41 42 42 42 43 43
22 22 21 20 20 21 21 21 21 21 21 21 20 20 20 21 21 21 20 20 19 18 17 15 15 14 13 15 16 17 16 16 17 18 19 21 22 22 20 20 21 23 24 25 26 26 27 27 28 28 28 27 26 26 27 28 29 30 31 32 32 33 34 35 35 36 37 37 38 39 39 39 39 39 40 40 40 41 41 41 41 42 42 43 43 44
23 23 23 22 21 21 21 22 23 23 22 22 21 20 20 20 21 21 21 21 21 20 19 18 18 18 19 20 21 21 19 18 18 19 19 20 21 22 21 20 20 22 24 26 27 27 27 28 28 28 27 26 25 26 26 27 29 30 31 32 33 33 34 34 35 36 36 37 38 38 39 39 39 39 40 40 41 41 41 42 42 42 42 43 43 43
25 26 26 24 22 22 22 23 24 24 24 23 21 20 20 20 20 20 21 21 20 20 20 20 20 21 22 23 23 22 21 19 18 18 18 19 21 21 21 20 20 22 24 26 27 27 26 27 27 27 26 25 25 25 26 28 29 30 31 32 33 33 34 34 35 35 36 37 37 38 38 39 39 40 40 41 41 41 41 42 42 42 42 42 42 43
28 28 27 26 25 25 25 25 25 25 24 23 21 20 20 20 20 20 21 20 20 20 21 22 23 25 25 25 25 23 22 20 19 18 17 17 19 22 21 20 20 22 24 26 26 26 25 26 26 26 26 25 25 26 27 28 29 30 31 32 32 33 33 34 34 35 36 36 37 38 38 39 40 40 41 41 41 41 41 41 41 41 41 42 42 42
32 31 29 28 27 27 28 28 27 26 25 24 24 24 24 22 22 21 21 21 21 22 23 25 25 26 26 25 25 24 23 22 21 20 18 13 16 22 22 20 20 21 24 25 26 25 25 26 26 26 26 25 25 26 27 28 29 30 30 31 32 32 33 33 34 35 35 36 37 38 38 39 40 40 40 40 40 40 40 41 41 41 41 42 42 42
34 33 31 29 29 30 30 29 28 27 27 27 27 27 27 26 25 24 23 23 23 23 24 23 22 22 23 23 23 24 24 24 23 22 19 16 18 22 22 21 20 21 24 25 25 25 25 26 26 26 26 25 25 25 26 27 28 29 30 31 31 32 32 33 34 34 35 36 37 38 38 39 39 40 40 40 40 40 40 40 40 41 41 42 42 42
35 34 33 31 31 32 31 30 29 28 28 29 29 29 29 29 27 26 25 24 23 22 20 18 17 17 19 20 21 22 24 24 23 22 20 18 19 22 22 21 20 21 23 25 25 24 25 25 26 26 25 25 25 26 26 27 28 29 29 30 30 31 32 32 33 34 35 36 37 38 38 38 39 39 39 39 39 40 40 40 41 41 41 42 42 42
36 35 35 34 33 33 32 32 31 29 29 29 30 30 30 29 28 26 24 23 21 19 17 14 14 16 19 20 20 21 22 22 22 23 22 18 18 20 21 20 19 20 22 24 24 24 24 25 25 26 25 25 25 26 26 27 27 28 28 29 29 30 31 32 33 35 36 36 37 37 37 38 38 38 39 39 39 39 40 40 40 41 41 41 42 42
37 37 36 36 35 34 33 33 32 31 30 29 29 30 30 29 27 24 22 22 21 20 16 12 10 13 17 18 20 21 22 21 21 23 23 20 17 17 19 19 19 19 22 23 24 23 23 24 25 25 25 25 26 26 27 27 26 26 26 27 28 30 31 32 33 34 35 36 36 36 37 37 38 38 38 39 39 39 39 39 40 40 41 41 40 40
35 37 37 37 37 36 36 35 34 33 33 32 31 30 30 29 26 23 24 25 24 21 18 13 10 9 9 13 18 22 23 22 21 22 22 19 16 15 18 18 19 19 20 21 22 23 22 23 24 25 25 26 26 26 26 25 24 24 25 27 28 30 31 32 33 33 34 35 35 36 36 37 37 38 38 38 39 39 39 39 39 40 40 39 37 36
31 32 34 36 37 37 37 37 37 36 36 35 34 33 32 31 28 25 25 26 24 21 18 17 15 12 11 15 19 21 21 21 21 20 20 16 14 15 18 18 18 18 18 18 19 21 22 22 23 23 23 24 24 24 24 23 23 24 26 27 28 29 30 30 31 32 33 34 35 35 36 36 37 37 37 38 38 38 38 38 38 38 37 36 34 34
29 27 27 29 31 32 34 35 35 35 35 35 35 35 34 33 30 27 25 23 21 19 17 16 16 16 14 13 12 11 14 18 19 19 18 15 14 15 17 17 18 18 16 13 11 12 16 20 21 20 20 21 21 22 22 23 24 26 27 27 28 28 28 29 30 31 33 34 34 35 35 36 36 36 37 37 37 37 37 37 37 36 34 34 33 33
30 28 26 25 25 26 27 28 28 28 28 29 30 31 31 30 27 24 21 19 18 17 16 15 15 15 14 7 3 2 4 11 15 15 16 15 14 15 16 16 17 18 17 13 5 2 8 13 18 19 18 19 20 22 23 23 24 25 26 26 27 28 28 28 29 30 32 33 34 34 34 35 35 35 36 36 36 36 36 36 36 35 33 32 32 31
30 30 28 27 26 26 26 26 25 25 25 26 26 27 27 27 26 24 23 21 20 19 17 16 16 16 15 10 7 5 5 10 12 13 14 14 15 16 17 17 17 18 18 17 12 7 5 6 13 21 20 21 22 23 23 23 23 24 24 25 26 27 28 28 28 30 31 32 33 33 33 33 34 34 34 35 35 35 35 35 35 34 32 31 31 31
28 28 28 28 27 27 28 28 28 28 28 28 29 29 29 28 27 27 27 27 26 24 22 21 20 18 17 16 15 15 16 17 17 15 15 15 15 16 17 18 18 18 18 18 18 16 12 11 15 21 23 23 23 23 23 23 23 23 24 25 26 27 27 27 28 29 30 31 32 32 32 32 32 33 33 34 34 34 34 34 34 33 33 32 31 31
26 26 25 25 25 26 27 28 29 29 29 29 30 30 30 30 30 29 29 29 29 29 27 26 24 22 20 18 18 20 22 23 22 20 19 18 18 17 18 18 18 18 17 16 17 18 17 18 19 20 21 23 24 24 23 23 23 23 23 24 25 26 27 27 27 28 30 31 32 32 32 31 32 32 32 32 33 33 33 34 34 35 35 34 33 32
22 23 23 22 22 23 24 26 27 27 28 28 28 28 28 29 29 29 29 29 29 29 29 29 28 27 24 21 20 20 22 24 24 22 21 21 20 19 19 19 19 18 16 16 16 15 15 18 20 19 18 21 23 25 24 23 22 22 23 23 23 24 26 26 27 28 29 30 31 31 31 31 31 31 31 31 32 33 34 35 36 36 36 35 34 33
20 21 21 21 21 21 21 22 24 25 26 26 26 26 26 27 28 28 29 29 29 29 29 29 29 29 29 27 26 25 25 26 25 23 22 22 22 21 19 19 19 19 17 17 17 15 14 16 19 21 20 17 18 21 24 23 22 22 22 23 23 24 25 26 27 27 28 29 30 31 31 31 31 31 31 32 33 34 35 36 36 36 36 35 35 34
20 20 21 20 20 20 21 22 23 23 24 24 24 25 25 26 27 28 28 29 29 28 28 28 29 30 30 31 30 30 30 30 28 26 25 24 23 22 21 20 20 20 19 18 18 17 16 15 16 17 18 16 15 17 21 23 23 22 23 23 24 25 25 26 26 26 27 28 30 31 31 31 31 32 32 32 33 34 34 34 34 34 34 34 35 35
20 20 20 21 21 22 22 23 23 23 23 24 24 24 25 25 26 27 27 28 29 29 28 28 28 29 30 31 31 32 33 32 31 30 29 27 26 25 24 23 23 22 21 21 20 19 17 12 10 10 9 14 19 21 23 23 23 23 24 24 25 25 25 25 25 25 26 27 29 30 31 31 31 31 31 32 32 32 32 33 33 33 33 34 34 35
20 20 21 22 23 23 23 24 24 23 23 23 24 24 24 25 25 26 26 27 28 28 29 29 29 29 30 30 31 32 32 32 32 32 31 30 28 27 26 25 25 25 25 24 23 22 20 15 11 8 6 11 18 22 24 23 22 23 24 25 25 25 25 24 24 25 26 27 29 30 30 31 31 31 31 31 31 31 32 32 33 33 32 33 34 35
21 21 22 23 24 24 25 24 24 23 23 24 23 23 23 23 23 24 25 26 27 27 29 29 30 30 30 30 30 31 31 32 32 31 31 30 30 29 28 26 26 26 26 25 24 23 22 20 19 19 19 16 17 20 22 23 23 23 23 22 22 23 24 24 25 26 27 27 28 28 29 30 31 31 31 31 31 31 31 32 32 33 33 32 31 32
22 22 23 24 25 25 25 24 23 23 23 23 23 22 22 22 22 22 23 24 25 26 27 28 28 29 29 30 31 32 32 33 32 31 31 31 31 30 30 28 27 27 26 26 25 24 24 22 22 22 22 21 21 23 24 24 24 24 23 21 22 24 26 27 26 26 26 26 27 28 29 30 31 31 31 31 31 31 31 31 32 33 33 31 29 29
23 23 24 25 25 25 24 24 23 23 23 22 22 22 22 22 22 21 21 21 22 23 24 24 24 24 25 27 29 30 31 32 32 32 32 33 33 32 32 31 30 29 27 26 26 26 25 24 23 23 22 21 21 21 22 25 25 24 23 22 24 26 27 27 26 25 24 26 27 28 28 29 30 31 31 32 32 32 31 31 32 32 32 31 30 29
24 25 25 25 25 25 24 23 22 21 21 21 22 22 23 23 22 21 20 20 20 21 22 22 22 21 21 23 25 26 28 29 30 30 31 32 33 33 33 33 32 31 29 26 25 26 26 25 24 24 24 23 22 21 21 23 24 24 24 24 23 22 19 23 25 25 25 26 28 28 28 29 29 30 31 32 32 32 32 31 32 31 31 30 30 30
25 25 25 25 24 24 23 22 22 21 21 21 21 22 23 23 23 21 20 19 20 20 20 20 20 20 20 20 22 23 24 25 26 27 28 29 30 31 32 33 34 33 32 28 26 24 25 25 25 25 25 24 23 22 22 22 23 24 24 24 23 21 20 22 25 27 27 27 28 28 28 28 29 30 32 32 32 32 32 32 31 31 31 31 30 30
24 24 24 24 23 22 21 22 22 22 21 21 21 22 22 22 22 21 19 19 19 19 20 19 17 16 16 18 19 20 21 22 23 24 25 26 27 28 29 30 31 32 32 31 29 26 24 23 24 25 24 24 23 23 23 23 23 24 25 25 24 24 25 26 26 26 26 27 28 29 29 29 29 30 31 32 33 33 32 32 32 32 31 30 30 29
22 22 21 21 21 21 21 21 21 21 21 21 21 21 21 21 20 20 19 19 18 18 19 18 16 14 14 16 18 18 19 19 20 20 21 23 24 25 26 27 28 29 30 30 30 29 27 26 25 24 23 23 24 24 24 24 23 23 24 25 25 25 26 26 26 25 25 26 27 28 29 29 29 29 30 32 33 33 33 32 31 30 31 30 30 30
18 18 18 18 19 19 19 20 19 19 19 19 19 19 19 19 18 18 18 18 18 17 17 16 16 15 16 17 18 18 17 18 19 20 20 20 21 23 24 25 26 27 28 28 29 29 28 28 27 25 23 21 21 23 25 25 24 23 23 24 24 24 24 25 25 25 25 25 26 28 29 28 28 29 30 32 33 33 33 32 30 29 29 29 29 29
15 15 16 17 17 17 18 18 18 18 17 17 18 18 17 17 17 17 17 17 17 16 15 15 15 16 17 18 19 19 19 19 19 20 20 20 20 21 22 23 24 26 27 27 27 27 28 28 28 27 25 23 21 21 24 25 25 24 24 24 24 23 23 24 25 25 24 25 26 27 27 26 26 27 29 31 31 32 32 32 31 29 28 28 28 29
15 16 16 17 17 17 17 17 17 17 17 17 17 17 16 16 16 16 16 16 16 15 15 14 14 15 16 17 19 20 20 21 21 20 20 20 20 20 20 21 22 23 24 25 25 25 26 27 28 29 28 27 25 24 25 25 25 25 24 24 23 23 23 24 24 24 23 24 26 27 26 26 26 27 28 28 28 30 32 32 31 30 28 27 27 28
17 17 18 18 18 17 17 18 17 17 16 16 16 16 16 16 16 16 16 15 15 15 15 15 15 15 15 17 18 19 20 20 20 20 20 20 19 19 19 19 19 19 20 20 21 21 21 22 23 26 27 27 27 26 25 25 25 25 24 24 23 22 22 22 23 23 23 23 24 25 26 26 27 27 26 26 26 28 30 31 30 30 28 27 27 28
17 18 18 18 18 18 18 18 17 17 16 16 16 16 15 15 15 15 15 15 15 15 15 16 16 16 16 17 19 20 20 19 19 20 20 20 19 19 19 19 18 18 16 15 14 14 12 11 14 18 22 25 25 25 25 24 23 22 21 22 22 22 21 21 22 22 22 22 23 24 25 26 27 26 25 24 24 25 25 27 29 30 29 29 29 30
Wind_Direction
251 251 248 243 239 237 238 238 239 239 241 242 243 244 245 247 250 253 256 258 260 261 262 263 264 266 267 268 269 269 269 269 269 269 269 269 269 270 270 271 272 273 274 275 276 277 278 278 280 282 284 286 288 288 289 289 289 289 289 289 289 289 289 289 288 288 288 287 287 287 287 286 286 286 285 285 285 285 285 285 285 285 285 285 286 286
248 248 246 244 241 239 240 241 241 242 244 246 248 249 251 252 254 256 258 259 260 260 261 262 263 265 266 268 269 269 269 269 268 268 268 268 268 269 269 270 271 272 273 274 275 276 277 278 281 283 286 287 288 288 288 288 288 288 288 289 289 289 289 289 289 289 288 288 288 287 287 287 286 286 286 286 286 287 286 287 286 285 285 285 285 284
245 245 244 243 241 241 242 244 244 245 246 248 251 252 254 255 257 258 258 258 259 259 259 260 262 263 265 267 269 269 269 269 268 266 266 267 267 268 269 269 270 271 272 273 274 276 277 280 283 285 287 287 287 287 287 287 287 288 289 289 289 289 290 290 289 289 289 289 288 288 288 288 287 287 287 286 286 286 286 286 285 284 283 283 282 281
244 244 243 243 242 242 243 245 246 247 249 250 252 254 255 255 256 256 257 258 258 258 259 260 260 262 264 266 268 269 269 268 267 265 265 266 266 267 268 268 269 270 272 273 275 277 279 282 284 285 286 286 287 287 287 288 288 289 290 290 290 290 290 290 290 290 289 289 289 289 288 288 288 288 287 287 286 286 285 285 284 283 283 282 281 281
243 243 244 243 243 244 245 246 247 249 250 252 253 254 254 254 255 255 257 257 257 258 258 259 260 261 262 265 267 268 268 267 266 265 265 265 266 266 267 268 269 270 272 273 275 277 280 282 283 284 285 286 286 287 288 289 289 290 291 291 291 291 291 291 290 290 289 289 289 289 289 289 289 288 288 287 286 285 285 284 283 283 283 282 281 281
244 243 244 244 244 245 246 247 247 248 250 251 252 253 253 254 254 255 255 255 256 256 257 258 259 260 261 263 265 266 266 265 264 264 264 265 265 266 267 268 269 271 272 274 275 277 280 281 283 284 284 285 286 287 288 289 290 291 291 291 291 291 291 291 290 290 290 290 290 290 290 289 289 288 288 287 286 285 285 284 283 283 282 282 282 281
246 245 244 245 245 246 246 246 246 246 247 248 250 252 253 254 254 254 254 255 255 255 256 257 258 259 260 261 263 264 264 264 263 263 263 264 265 265 267 268 269 270 272 273 275 277 279 281 283 283 284 285 286 287 288 289 290 291 291 291 291 291 291 291 290 290 290 290 290 291 290 290 289 289 288 287 286 285 285 284 283 282 282 281 281 280
247 246 244 244 245 246 247 246 246 245 245 246 248 250 252 253 254 254 255 256 256 255 255 256 257 258 258 259 260 261 262 263 263 263 263 263 263 263 265 267 268 269 271 273 275 277 279 281 282 283 284 285 286 288 289 290 291 291 291 291 291 291 291 291 291 291 291 291 291 291 291 290 290 289 288 287 286 285 284 283 282 282 281 280 279 279
244 245 244 243 242 243 246 247 246 245 244 244 245 247 250 252 254 255 255 256 255 254 253 253 255 256 257 258 259 259 260 261 262 263 263 263 263 263 264 266 268 269 271 274 276 278 279 280 281 282 284 285 287 288 289 290 291 291 291 291 291 291 291 291 292 292 292 292 291 291 291 290 289 288 287 287 285 284 283 282 282 281 280 280 280 279
241 243 245 244 242 241 243 247 248 247 246 245 245 246 247 249 252 255 255 255 253 252 250 250 251 254 257 258 259 259 260 260 260 261 260 261 262 264 266 267 269 271 273 275 276 277 279 280 281 282 284 286 287 289 290 290 291 291 291 291 291 291 291 292 292 292 292 292 291 291 290 290 289 288 287 287 286 285 284 284 283 283 283 283 283 283
241 242 242 243 243 242 242 245 248 249 248 247 247 246 246 245 246 249 253 254 254 252 250 249 249 251 254 257 258 259 260 260 260 259 258 259 261 264 267 268 270 271 273 274 275 276 277 279 280 282 284 286 287 289 290 290 291 291 291 291 291 292 292 292 292 292 292 292 291 291 291 290 290 289 289 288 287 286 286 285 285 285 284 284 284 284
240 240 240 240 241 242 242 244 247 247 246 244 244 245 244 243 241 242 245 250 253 253 251 250 250 250 252 254 257 258 259 258 258 259 260 261 263 266 268 269 269 270 271 272 273 274 275 277 279 282 284 286 287 289 290 290 290 290 291 291 291 291 292 292 292 292 292 292 292 292 292 292 291 290 290 289 288 287 286 286 285 284 283 283 282 282
238 238 238 237 237 237 238 240 242 242 239 236 235 237 240 240 238 237 240 246 250 251 251 252 253 253 253 254 256 257 257 257 258 259 262 264 266 267 268 269 269 270 270 271 272 273 275 277 280 282 284 286 287 288 289 289 290 290 291 291 291 291 292 292 292 292 292 292 293 293 293 292 292 291 290 289 288 287 286 285 285 284 283 282 281 281
235 234 233 233 233 234 233 234 235 236 235 233 232 235 238 239 237 235 238 243 248 250 251 252 254 256 256 256 256 256 256 257 259 261 262 264 265 267 268 268 268 269 269 270 272 274 276 279 281 282 284 285 286 287 289 290 290 290 291 291 292 292 292 293 293 293 293 293 293 293 293 293 292 291 290 290 289 288 287 286 286 285 284 284 284 284
230 228 230 231 232 232 231 231 233 235 236 235 235 236 239 239 236 234 235 241 246 249 251 253 256 258 259 257 256 255 255 256 258 260 261 263 265 267 267 266 266 267 268 269 271 274 277 279 280 282 284 285 286 288 289 290 290 291 291 291 292 292 293 293 293 293 293 294 294 294 294 293 293 292 291 291 290 289 288 287 287 286 286 286 285 284
227 227 228 230 230 230 231 231 232 235 237 238 237 236 236 236 234 233 234 238 243 247 249 252 256 260 262 260 258 255 253 253 254 256 259 262 265 267 266 264 264 266 268 269 272 275 278 279 280 282 284 285 286 288 288 289 290 290 291 292 292 293 293 293 293 294 294 294 294 294 294 294 294 293 292 291 290 289 288 288 287 286 285 284 283 282
227 227 228 230 230 230 231 231 232 234 237 238 237 235 233 233 233 233 233 236 240 243 244 246 249 259 263 264 260 254 250 248 250 253 258 263 267 268 266 264 264 266 269 271 273 275 277 279 280 282 283 284 286 287 288 289 290 290 291 291 292 293 293 293 294 294 294 294 295 295 295 294 294 293 292 291 290 289 288 287 286 286 285 284 284 284
226 226 226 227 229 229 229 230 232 234 235 236 236 236 235 234 233 233 234 235 236 238 240 242 244 247 256 263 260 254 247 246 249 256 262 266 269 269 267 265 265 267 271 272 274 275 277 278 280 281 282 283 285 286 287 288 289 290 291 291 292 293 293 294 294 294 294 295 295 295 295 294 293 293 292 291 290 289 288 288 287 287 287 287 287 286
226 224 223 225 227 228 229 230 231 232 232 233 234 234 235 235 234 233 233 234 234 236 239 242 245 247 251 255 257 256 252 252 257 262 266 269 270 270 267 266 266 269 271 272 274 275 277 278 279 280 281 282 283 285 286 287 288 289 290 291 292 293 293 294 295 295 295 294 294 294 294 294 293 292 292 291 291 290 290 289 289 289 288 288 287 287
227 225 223 223 224 226 229 231 231 231 231 231 231 232 233 234 233 233 233 234 235 237 239 243 246 248 251 254 256 257 256 257 260 264 266 269 270 269 268 267 267 269 271 272 273 275 277 278 279 280 280 281 283 284 286 287 288 289 290 291 292 292 293 294 295 295 295 294 294 294 294 294 293 293 293 292 292 291 291 290 289 288 288 287 286 285
228 229 226 222 222 225 230 232 231 231 232 231 230 231 232 232 232 232 233 234 236 238 241 244 246 248 251 253 255 256 256 257 259 263 267 270 270 269 268 268 268 269 271 272 274 276 277 278 278 279 280 281 282 284 285 286 287 288 289 290 292 293 293 294 295 295 294 294 293 293 293 294 294 294 294 294 293 292 291 290 289 288 287 286 286 285
227 230 227 223 222 225 229 232 233 232 231 228 227 227 229 230 231 233 233 233 235 239 242 245 248 250 251 252 254 255 255 256 257 261 268 271 271 269 269 268 268 269 270 272 274 276 277 277 278 279 279 281 282 283 284 285 286 287 289 290 292 293 293 294 294 294 294 294 293 293 293 294 294 294 294 294 293 292 291 290 289 288 288 287 286 285
226 229 229 226 223 224 228 232 234 233 230 227 226 228 229 230 230 232 233 234 236 240 245 248 250 251 251 252 253 255 255 256 258 260 263 266 268 269 269 269 268 268 269 271 274 277 278 278 278 278 279 280 281 282 283 284 285 286 288 289 291 292 293 293 294 294 294 294 294 294 294 294 294 294 294 294 293 292 291 290 290 289 288 287 287 287
223 226 227 225 224 225 227 229 231 230 229 227 227 228 230 231 233 235 237 238 239 242 246 248 249 250 250 251 254 256 257 258 256 255 255 258 264 266 267 267 266 267 269 271 274 277 278 278 278 279 280 280 281 281 282 283 284 285 287 289 290 291 292 293 294 294 295 295 295 295 295 295 295 295 294 294 293 292 291 291 290 289 289 288 288 288
220 222 223 224 224 225 225 227 228 228 228 228 229 230 232 234 236 239 241 241 241 240 241 243 245 248 250 253 255 258 259 259 254 248 246 253 260 263 264 263 263 265 269 272 275 277 278 278 279 280 281 281 281 281 281 282 283 284 286 287 289 290 292 293 294 295 296 296 296 296 295 295 295 294 294 294 293 292 292 291 291 291 290 290 290 290
221 220 221 223 224 225 226 227 228 229 230 230 231 231 233 234 236 238 238 238 236 234 234 237 243 247 251 253 256 259 261 260 253 245 240 245 255 260 261 261 261 264 269 274 276 277 277 278 279 281 281 281 280 280 280 281 282 283 284 286 288 290 292 293 295 295 296 296 296 296 296 295 295 295 294 294 294 293 293 293 292 292 292 291 291 291
226 223 222 223 224 225 227 229 230 232 232 232 233 233 233 232 232 232 233 232 230 228 228 233 241 246 249 252 256 259 262 261 255 246 239 240 247 256 259 260 261 265 269 274 275 276 276 277 279 280 281 281 280 280 280 280 281 282 284 286 288 291 292 293 294 295 296 296 297 297 297 296 296 295 295 295 295 294 294 294 293 293 293 293 292 291
234 227 224 224 225 227 229 230 232 233 233 233 234 233 232 228 225 226 230 231 229 226 226 229 233 238 244 250 255 259 262 261 255 247 240 236 240 253 257 261 263 266 269 274 276 276 275 275 277 279 281 281 280 280 280 280 281 282 284 287 289 291 292 293 294 295 296 297 297 297 298 297 297 296 296 296 296 295 295 294 294 294 294 293 292 291
245 235 228 225 226 227 229 231 233 234 234 235 235 234 231 226 221 220 226 227 225 223 225 229 232 237 243 251 257 262 263 259 254 246 238 234 240 252 258 261 263 264 267 273 278 279 276 275 276 278 280 280 280 280 280 281 282 284 286 288 289 290 291 293 294 295 296 297 298 298 298 298 298 297 297 296 296 295 295 295 295 295 295 293 292 290
253 248 240 233 230 229 230 231 233 234 235 235 236 235 233 230 225 222 224 223 220 218 222 227 230 235 242 251 260 264 262 256 249 241 233 231 241 253 258 259 259 259 262 270 279 282 280 280 280 279 279 280 281 281 282 284 285 287 288 289 290 290 291 292 294 296 297 298 298 298 298 298 298 297 297 296 296 296 295 295 295 295 294 293 291 289
251 253 253 249 245 241 239 238 238 239 240 240 241 241 240 239 237 236 236 234 229 225 226 229 232 235 239 243 253 261 257 253 247 237 231 229 239 251 255 257 258 258 258 261 265 290 286 286 285 284 282 282 283 283 284 285 286 287 288 289 290 291 292 293 295 297 297 298 299 299 298 298 298 297 297 297 296 296 296 295 295 295 294 292 290 288
245 248 252 254 255 254 253 252 252 252 252 252 252 251 250 250 251 252 254 255 252 249 245 244 244 245 245 242 240 245 251 255 251 242 235 234 242 251 254 256 258 260 260 259 258 263 279 287 288 288 287 285 285 285 285 286 286 287 288 289 290 291 293 295 296 297 298 299 299 299 299 298 297 297 297 297 297 296 296 296 295 295 294 292 290 288
242 245 248 250 253 255 256 257 258 258 258 258 257 256 255 254 255 255 256 257 257 256 255 254 254 253 251 247 246 248 253 255 255 252 245 243 248 255 258 258 259 262 264 262 261 261 265 271 282 287 287 286 286 286 286 286 286 287 288 289 290 291 293 296 297 298 298 299 299 299 299 298 298 297 297 297 296 296 296 295 295 294 294 293 292 291
239 241 243 245 248 251 253 255 256 257 256 255 253 252 252 252 252 253 253 253 252 252 251 251 252 252 251 249 249 251 253 255 256 254 250 245 248 255 260 260 260 262 265 265 265 265 266 269 275 282 286 287 286 286 286 286 287 287 288 289 290 292 294 296 297 298 298 299 299 299 299 299 298 298 297 297 297 296 296 295 295 295 294 294 294 294
234 236 237 238 241 243 247 249 251 251 250 249 248 247 247 248 249 250 250 250 249 248 247 247 247 246 246 246 247 250 253 254 255 255 251 245 246 252 259 260 261 261 263 265 266 267 269 270 273 277 282 286 287 287 286 286 287 288 289 289 290 291 293 295 296 297 298 298 299 299 298 299 299 299 298 298 297 297 296 296 296 295 295 294 294 294
228 230 231 231 232 234 237 239 241 242 242 242 242 242 243 244 246 247 247 247 246 246 246 246 246 245 244 243 244 247 251 254 256 255 253 249 248 251 256 259 260 260 260 263 265 266 269 272 275 277 279 283 286 288 288 288 289 289 290 291 291 292 293 294 295 295 296 297 297 298 299 299 299 299 298 298 297 297 297 296 296 295 295 294 294 293
225 226 226 224 224 225 228 230 232 233 235 236 237 239 241 242 243 244 245 245 245 245 246 246 246 246 245 244 245 246 250 254 256 256 254 252 251 251 253 257 259 258 257 260 263 266 268 272 276 277 277 278 281 286 289 291 292 291 291 292 293 293 293 294 294 294 295 295 296 297 298 299 300 299 299 298 299 298 298 297 296 296 296 296 295 294
223 224 224 223 223 224 226 229 230 230 230 232 234 237 240 242 243 243 244 245 246 246 246 246 246 247 246 246 247 249 251 254 255 256 256 255 253 252 253 255 258 258 256 258 261 264 267 270 274 275 275 277 279 282 285 289 291 291 292 293 293 293 293 294 294 294 294 295 296 297 298 299 299 300 299 300 300 300 299 299 298 298 298 298 298 296
223 224 225 225 225 225 226 227 227 227 227 229 233 237 240 242 243 244 244 246 247 248 248 248 248 248 249 249 250 252 253 254 255 256 257 257 255 253 252 253 256 257 258 258 260 262 264 265 267 269 274 279 281 282 283 285 287 289 292 294 295 294 293 294 295 295 295 295 296 297 298 299 300 300 300 300 300 300 300 300 300 300 300 301 300 299
224 226 227 227 227 226 226 225 225 226 227 230 234 237 240 241 242 244 246 247 248 250 250 251 251 251 252 253 253 253 254 254 255 255 256 256 255 254 252 251 253 256 257 258 258 259 260 262 264 268 272 275 279 281 283 283 284 287 291 294 294 294 294 295 296 296 295 294 295 296 298 300 301 301 300 300 300 299 299 299 299 300 300 300 300 300
224 226 228 228 228 227 226 225 225 226 228 231 234 236 237 238 240 243 245 247 248 249 251 251 252 253 254 255 255 255 254 254 254 254 254 255 255 255 253 251 251 253 256 257 257 257 258 260 264 267 270 272 275 277 279 280 282 285 288 289 290 291 294 295 295 294 294 294 295 296 298 300 301 301 300 300 299 298 298 297 297 298 299 298 297 297
226 227 228 228 228 226 225 225 225 226 229 230 232 233 235 236 238 240 242 244 246 247 249 249 250 252 255 256 256 256 255 255 255 255 256 257 257 257 255 252 251 252 253 255 257 258 259 260 262 265 267 269 272 275 277 278 280 282 283 284 288 291 293 294 293 293 294 294 296 297 298 299 300 300 300 300 300 299 299 297 297 297 298 298 297 296
227 228 229 228 226 224 223 222 222 224 226 228 231 233 235 237 237 238 239 241 243 245 246 247 248 250 253 256 257 257 257 257 257 258 258 259 260 259 257 254 252 251 250 251 254 258 259 260 261 263 265 267 269 271 274 277 279 281 281 282 286 290 292 292 293 295 295 295 296 297 298 298 299 299 300 300 300 300 300 299 298 298 298 298 297 296
229 229 227 226 223 221 219 219 219 221 223 225 229 233 236 236 236 235 236 238 241 243 245 247 248 249 251 253 256 258 259 259 260 260 259 259 259 259 257 255 254 252 249 247 249 254 259 261 262 262 264 266 267 269 271 274 277 279 280 281 283 283 282 286 290 293 294 294 295 296 296 297 299 300 301 301 301 301 301 301 300 299 298 297 296 295
229 226 224 221 217 215 214 215 217 219 221 225 228 231 233 234 234 233 233 236 240 243 245 247 247 248 250 253 256 259 262 262 261 260 259 258 257 256 255 254 253 252 250 247 247 249 254 258 262 264 265 266 266 266 268 271 274 277 279 280 281 280 279 282 286 289 290 292 293 295 296 298 300 302 302 302 302 301 301 301 300 299 298 298 297 295
222 219 215 212 210 209 210 212 214 216 218 221 224 227 230 232 232 232 232 235 238 242 245 245 244 245 250 255 258 261 264 264 264 262 260 258 257 255 253 252 251 250 249 249 249 250 250 254 258 263 265 267 266 265 265 268 271 274 276 279 281 281 282 282 283 284 286 288 290 293 296 299 301 302 302 302 302 301 301 300 299 298 298 298 297 296
208 205 203 202 202 203 205 206 207 209 211 215 219 224 227 229 230 230 232 234 237 240 243 243 243 245 251 256 260 263 265 267 268 267 265 261 259 257 255 254 254 253 252 251 251 251 251 253 255 257 260 263 266 267 267 267 268 270 273 276 279 280 280 281 282 283 284 286 288 291 295 299 302 303 303 303 302 301 301 299 298 297 297 297 296 296
199 198 197 197 197 198 199 201 202 204 207 212 219 224 227 229 229 229 231 234 236 237 241 243 245 248 253 257 260 262 265 268 270 270 269 265 263 260 259 257 257 256 256 255 255 255 255 255 255 254 253 255 260 265 267 268 268 268 269 272 275 276 277 278 280 282 283 284 287 290 293 297 300 302 303 303 302 301 300 300 299 298 296 296 295 296
205 204 203 202 202 202 202 203 204 207 211 217 222 228 232 232 233 233 233 233 234 236 239 242 246 251 255 259 262 264 267 269 270 271 269 268 266 264 262 260 259 259 258 258 258 259 260 260 258 256 253 250 252 258 264 266 267 267 267 269 270 271 273 276 279 281 282 284 287 290 293 295 297 299 301 301 300 299 299 299 299 298 297 296 296 295
212 211 210 208 208 208 209 210 212 214 218 223 228 232 235 237 235 233 233 234 235 236 239 243 247 252 258 262 265 267 268 269 270 270 269 268 267 265 264 262 260 260 260 261 261 262 263 263 262 259 256 250 248 250 255 261 264 265 265 265 266 267 270 273 276 278 282 285 288 291 294 295 297 298 298 297 297 297 298 298 299 299 298 298 298 297
212 212 211 210 210 211 213 214 216 218 222 226 231 234 236 236 235 235 235 235 237 240 243 246 249 254 259 263 266 268 268 268 268 268 268 268 267 265 264 262 260 259 259 261 262 263 264 266 267 265 262 256 250 247 248 254 259 262 264 264 264 266 267 270 274 278 282 285 289 292 294 296 297 297 297 296 296 297 298 298 298 298 299 300 301 300